Weather History for Del Bajio, Mexico

Change the Weather History Date:

Monday, September 24, 2012

  Actual Average Record
Temperature  
Mean Temperature 68 °F -  
Max Temperature 80 °F 79 °F 87 °F (2006)
Min Temperature 55 °F 56 °F 51 °F (2005)
Cooling Degree Days 2    
Growing Degree Days 18 (Base 50)    
Moisture  
Dew Point 52 °F    
Average Humidity 59    
Maximum Humidity 77    
Minimum Humidity 39    
Precipitation  
Precipitation 0.00 in - - ()
Sea Level Pressure  
Sea Level Pressure 30.18 in    
Wind  
Wind Speed 5 mph ()    
Max Wind Speed 15 mph    
Max Gust Speed -    
Visibility 9.0 miles    
Events      
Averages and records for this station are not official NWS values.
T = Trace of Precipitation, MM = Missing Value Source: Averaged Metar Reports

Daily Weather History Graph

Daily Weather History Graph

Search for Another Location

Airport:

Trip Planner

Search our weather history database for the weather conditions in past years. The results will help you decide how hot, cold, wet, or windy it might be!

Date:

Astronomy

Sep. 24, 2012 Rise Set
Actual Time 7:35 AM CDT 7:39 PM CDT
Civil Twilight 7:13 AM CDT 8:01 PM CDT
Nautical Twilight 6:47 AM CDT 8:27 PM CDT
Astronomical Twilight 6:21 AM CDT 8:53 PM CDT
Moon 3:54 PM CDT (9/24) 2:30 AM CDT (9/24)
Length of Visible Light 12h 48m
Length of Day
12h 04m
Waxing Gibbous, 71% of the Moon is Illuminated
Sep 24
Waxing Gibbous
Sep 29
Full
Oct 8
Last Quarter
Oct 15
New
Oct 21
First Quarter

Hourly Weather History & Observations

Time (CDT) Temp. Heat Index Dew Point Humidity Pressure Visibility Wind Dir Wind Speed Gust Speed Precip Events Conditions
12:46 AM 64.4 °F - 50.0 °F 59% 29.92 in 8.0 mi East 6.9 mph - N/A   Mostly Cloudy
1:50 AM 60.8 °F - 50.0 °F 68% 30.32 in 8.0 mi ENE 6.9 mph - N/A   Mostly Cloudy
4:47 AM 59.0 °F - 50.0 °F 72% 30.29 in 8.0 mi Calm Calm - N/A   Scattered Clouds
5:47 AM 57.2 °F - 48.2 °F 72% 30.29 in 8.0 mi Calm Calm - N/A   Scattered Clouds
6:50 AM 55.4 °F - 42.8 °F 63% 29.98 in 8.0 mi ESE 6.9 mph - N/A   Scattered Clouds
7:50 AM 55.4 °F - 42.8 °F 63% 30.30 in 8.0 mi ENE 6.9 mph - N/A   Scattered Clouds
8:47 AM 62.6 °F - 55.4 °F 77% 30.32 in 9.0 mi Calm Calm - N/A   Mostly Cloudy
9:42 AM 69.8 °F - 53.6 °F 56% 29.99 in 10.0 mi ESE 6.9 mph - N/A   Mostly Cloudy
10:42 AM 73.4 °F - 53.6 °F 50% 30.35 in 10.0 mi East 6.9 mph - N/A   Mostly Cloudy
11:45 AM 71.6 °F - 53.6 °F 53% 30.35 in 10.0 mi ENE 11.5 mph - N/A   Mostly Cloudy
12:48 PM 73.4 °F - 53.6 °F 50% 29.95 in 10.0 mi ENE 6.9 mph - N/A   Mostly Cloudy
1:40 PM 75.2 °F - 53.6 °F 47% 30.29 in 10.0 mi Calm Calm - N/A   Mostly Cloudy
2:43 PM 77.0 °F - 53.6 °F 44% 30.27 in 10.0 mi ENE 3.5 mph - N/A   Mostly Cloudy
3:46 PM 77.0 °F - 53.6 °F 44% 29.82 in 10.0 mi NE 9.2 mph - N/A   Mostly Cloudy
4:44 PM 80.6 °F 80.3 °F 53.6 °F 39% 30.21 in 10.0 mi ENE 6.9 mph - N/A   Mostly Cloudy
5:46 PM 78.8 °F - 53.6 °F 42% 30.21 in 10.0 mi NE 11.5 mph - N/A   Mostly Cloudy
7:50 PM 68.0 °F - 53.6 °F 60% 30.24 in 10.0 mi ENE 6.9 mph - N/A   Mostly Cloudy
8:49 PM 66.2 °F - 53.6 °F 64% 30.24 in 8.0 mi NE 6.9 mph - N/A   Mostly Cloudy
9:41 PM 64.4 °F - 53.6 °F 68% 29.90 in 8.0 mi ENE 5.8 mph - N/A   Mostly Cloudy
10:44 PM 64.4 °F - 55.4 °F 73% 30.27 in 8.0 mi NE 15.0 mph - N/A   Scattered Clouds
11:42 PM 62.6 °F - 53.6 °F 72% 30.27 in 8.0 mi ENE 10.4 mph - N/A   Scattered Clouds